Weather History for PPIZ - February, 2013

Change the Weather History Date:

Monday, February 18, 2013

  Actual Average Record
Temperature  
Mean Temperature -32 °F -  
Max Temperature -25 °F - - ()
Min Temperature -38 °F - - ()
Degree Days  
Heating Degree Days 96    
Moisture  
Dew Point -35 °F    
Average Humidity 69    
Maximum Humidity 73    
Minimum Humidity 68    
Precipitation  
Precipitation 0.00 in - - ()
Sea Level Pressure  
Sea Level Pressure 30.57 in    
Wind  
Wind Speed 3 mph (ENE)    
Max Wind Speed 9 mph    
Max Gust Speed -    
Visibility 4 miles    
Events      
T = Trace of Precipitation, MM = Missing Value Source: NWS Daily Summary

Daily Weather History Graph

Daily Weather History Graph

Search for Another Location

Airport or City:

Trip Planner

Search our weather history database for the weather conditions in past years. The results will help you decide how hot, cold, wet, or windy it might be!

Date:

Astronomy

Feb. 18, 2013 Rise Set
Actual Time 10:06 AM AKST 6:07 PM AKST
Civil Twilight 9:00 AM AKST 7:12 PM AKST
Nautical Twilight 7:50 AM AKST 8:23 PM AKST
Astronomical Twilight 6:40 AM AKST 9:33 PM AKST
Moon No Moon Rise No Moon Set
Length of Visible Light 10h 11m
Length of Day
8h 00m
First Quarter, 60% of the Moon is Illuminated
Feb 18
First Quarter
Feb 25
Full
Mar 4
Last Quarter
Mar 11
New
Mar 19
First Quarter

Hourly Weather History & Observations

Time (AKST) Temp. Windchill Dew Point Humidity Pressure Visibility Wind Dir Wind Speed Gust Speed Precip Events Conditions
12:56 AM -37.8 °F - - N/A% 30.68 in 10.0 mi Calm Calm - N/A   Clear
1:56 AM -38.9 °F - - N/A% 30.68 in 10.0 mi Calm Calm - N/A   Clear
2:56 AM -38.2 °F - - N/A% 30.66 in 10.0 mi Calm Calm - N/A   Clear
3:56 AM -37.8 °F - - N/A% 30.67 in 10.0 mi Calm Calm - N/A   Clear
4:56 AM -38.9 °F - - N/A% 30.67 in 10.0 mi Calm Calm - N/A   Clear
5:56 AM -37.8 °F - - N/A% 30.66 in 10.0 mi Calm Calm - N/A   Clear
6:56 AM -35.9 °F -48.8 °F - N/A% 30.65 in 8.0 mi ENE 3.5 mph - N/A   Clear
7:56 AM -33.9 °F -51.8 °F - N/A% 30.64 in 10.0 mi ENE 5.8 mph - N/A   Clear
8:56 AM -33.9 °F - - N/A% 30.64 in 10.0 mi Calm Calm - N/A   Clear
9:56 AM -33.0 °F -45.5 °F - N/A% 30.64 in 6.0 mi ENE 3.5 mph - N/A   Haze
10:56 AM -31.9 °F -47.1 °F - N/A% 30.64 in 10.0 mi ENE 4.6 mph - N/A   Clear
11:33 AM -31.0 °F -50.3 °F - N/A% 30.62 in 2.5 mi ENE 6.9 mph - N/A   Clear
11:45 AM -31.0 °F -51.9 °F - N/A% 30.62 in 3.0 mi ENE 8.1 mph - N/A   Clear
11:56 AM -29.9 °F -42.0 °F - N/A% 30.64 in 2.5 mi ENE 3.5 mph - N/A   Clear
12:28 PM -29.2 °F -48.1 °F -36.4 °F 68% 30.61 in 1.8 mi ENE 6.9 mph - N/A   Haze
12:35 PM -29.2 °F -48.1 °F -36.4 °F 68% 30.61 in 2.0 mi ENE 6.9 mph - N/A   Haze
12:56 PM -27.9 °F -46.6 °F -35.0 °F 69% 30.61 in 2.0 mi ENE 6.9 mph - N/A   Haze
1:11 PM -27.4 °F -47.6 °F -34.6 °F 69% 30.60 in 1.8 mi ENE 8.1 mph - N/A   Haze
1:23 PM -27.4 °F -44.1 °F -34.6 °F 69% 30.59 in 2.0 mi ENE 5.8 mph - N/A   Haze
1:56 PM -26.0 °F -42.4 °F -33.0 °F 69% 30.61 in 2.5 mi ENE 5.8 mph - N/A   Haze
2:26 PM -25.6 °F -39.8 °F -32.8 °F 69% 30.58 in 3.0 mi NE 4.6 mph - N/A   Haze
2:47 PM -25.6 °F -41.9 °F -32.8 °F 69% 30.57 in 2.5 mi NE 5.8 mph - N/A   Haze
2:56 PM -25.6 °F -41.9 °F -32.8 °F 69% 30.56 in 2.5 mi NE 5.8 mph - N/A   Haze
3:17 PM -25.6 °F -41.9 °F -32.8 °F 69% 30.56 in 1.5 mi ENE 5.8 mph - N/A   Haze
3:56 PM -26.0 °F -40.2 °F -31.9 °F 73% 30.57 in 1.8 mi ENE 4.6 mph - N/A   Haze
4:33 PM -25.6 °F -39.8 °F -32.8 °F 69% 30.54 in 1.2 mi ENE 4.6 mph - N/A   Haze
4:49 PM -27.4 °F -39.2 °F -34.6 °F 69% 30.53 in 1.8 mi ENE 3.5 mph - N/A   Haze
4:56 PM -26.9 °F -38.5 °F -33.9 °F 69% 30.55 in 2.0 mi ENE 3.5 mph - N/A   Haze
5:20 PM -27.4 °F -39.2 °F -34.6 °F 69% 30.53 in 1.5 mi ENE 3.5 mph - N/A   Haze
5:56 PM -27.9 °F -39.8 °F -35.0 °F 69% 30.53 in 2.0 mi ENE 3.5 mph - N/A   Haze
6:06 PM -27.4 °F -41.9 °F -34.6 °F 69% 30.51 in 1.8 mi NE 4.6 mph - N/A   Haze
6:13 PM -29.2 °F -44.0 °F -36.4 °F 68% 30.52 in 2.0 mi ENE 4.6 mph - N/A   Haze
6:56 PM -28.8 °F -43.6 °F -35.9 °F 69% 30.53 in 2.5 mi ENE 4.6 mph - N/A   Haze
7:07 PM -29.2 °F -44.0 °F -36.4 °F 68% 30.51 in 3.0 mi ENE 4.6 mph - N/A   Haze
7:56 PM -29.9 °F -47.1 °F - N/A% 30.51 in 2.5 mi ENE 5.8 mph - N/A   Clear
8:42 PM -29.2 °F -49.7 °F -36.4 °F 68% 30.48 in 1.8 mi ENE 8.1 mph - N/A   Haze
8:56 PM -29.2 °F -48.1 °F -36.4 °F 68% 30.48 in 1.8 mi NE 6.9 mph - N/A   Haze
9:03 PM -29.2 °F -46.2 °F -36.4 °F 68% 30.48 in 2.5 mi ENE 5.8 mph - N/A   Haze
9:27 PM -29.2 °F -44.0 °F -36.4 °F 68% 30.50 in 3.0 mi ENE 4.6 mph - N/A   Haze
9:56 PM -29.9 °F -47.1 °F - N/A% 30.51 in 5.0 mi NE 5.8 mph - N/A   Haze
10:41 PM -29.2 °F -49.7 °F - N/A% 30.48 in 2.5 mi ENE 8.1 mph - N/A   Clear
10:48 PM -29.2 °F -51.2 °F - N/A% 30.47 in - ENE 9.2 mph - N/A   Clear
10:56 PM -29.9 °F -52.1 °F - N/A% 30.48 in - ENE 9.2 mph - N/A   Clear
11:56 PM -29.2 °F -51.2 °F -36.4 °F 68% 30.45 in - ENE 9.2 mph - N/A   Clear